Lid_Strength_Index
12 14 15 14 13 13 14 15 15 14 12 13 14 14 14 13 13 13 13 13 13 12 11 11 10 8 8 7 7 7 6 1 0 1 1 1 2 1 1 2 2 2 2 1
14 15 12 12 12 13 14 15 15 14 12 12 14 15 13 12 13 13 13 13 13 12 12 11 11 10 9 9 8 7 8 7 4 1 0 1 1 0 1 1 2 1 1 2
15 13 11 12 13 14 14 15 15 15 13 13 14 15 14 13 12 11 12 12 13 13 13 12 12 11 11 10 9 8 8 8 7 4 0 0 0 1 1 1 1 1 1 1
14 12 12 13 13 13 15 13 14 14 15 17 15 19 15 13 13 13 12 13 13 13 13 13 13 12 12 11 10 9 9 8 8 7 2 1 2 3 1 1 1 1 1 1
15 14 13 13 13 13 14 13 14 14 15 16 16 19 16 14 15 14 13 12 12 12 12 13 13 12 12 12 12 10 9 9 8 7 6 4 2 1 1 1 1 1 2 2
15 13 12 12 12 12 12 14 16 17 17 23 16 18 18 15 14 14 13 13 13 12 11 11 11 12 12 11 12 12 11 10 9 7 6 6 4 2 2 2 2 2 2 2
17 15 13 11 13 13 14 19 26 25 26 24 17 18 17 13 13 13 13 13 12 12 12 11 11 11 12 12 12 11 11 11 9 8 7 7 6 5 2 1 1 1 2 2
23 21 15 12 13 13 14 15 24 28 25 23 18 19 16 13 12 12 12 12 11 11 11 11 11 12 12 12 12 11 10 11 10 10 9 7 6 5 2 1 2 1 2 2
21 23 15 12 12 12 16 17 13 18 21 22 20 18 14 13 14 13 13 13 12 12 11 11 11 11 11 11 11 11 11 10 10 10 9 8 7 6 5 1 1 1 1 1
18 22 18 14 13 13 13 12 20 19 26 26 23 21 18 16 15 14 14 14 13 12 12 12 12 12 12 11 11 11 11 11 10 9 8 8 7 5 5 3 1 1 1 1
13 16 20 17 15 15 14 18 15 15 17 21 24 22 18 16 14 15 14 14 13 13 13 13 12 12 12 12 12 12 12 11 11 9 8 7 6 5 3 2 1 1 1 1
13 17 21 22 17 13 12 14 15 21 24 21 20 21 13 14 14 13 14 14 14 14 14 14 14 13 13 13 13 13 12 12 12 10 9 8 7 6 3 4 4 4 5 5
14 22 26 23 17 14 14 13 12 15 16 22 23 22 14 15 15 14 14 14 15 15 15 15 14 14 14 14 13 13 13 13 12 11 10 10 9 8 8 7 7 7 6 7
14 23 23 22 20 18 18 17 14 14 19 22 21 22 20 19 18 17 17 17 16 17 16 16 14 14 14 14 14 14 13 13 12 12 11 11 10 9 9 8 8 9 9 8
15 24 20 20 19 17 17 18 16 16 15 20 22 20 20 18 17 17 17 14 17 17 18 19 16 15 15 15 15 14 14 13 13 13 13 12 11 10 10 10 10 10 10 10
15 23 21 26 23 16 17 16 14 15 15 15 16 17 14 15 17 18 17 17 18 17 17 18 18 18 18 16 15 15 15 14 13 14 13 12 11 11 12 12 11 12 12 12
18 22 27 28 25 26 24 20 16 16 15 15 20 16 15 16 15 16 16 15 16 15 14 16 16 18 19 18 16 15 15 14 14 14 13 12 12 13 13 12 13 13 14 13
18 20 21 29 26 28 18 16 15 15 16 14 14 15 14 14 14 14 13 14 14 14 14 15 15 16 16 17 17 15 15 15 14 14 13 13 13 14 14 14 14 14 14 14
16 18 29 28 31 22 19 16 16 15 15 13 13 13 14 14 13 13 12 12 13 14 14 15 15 16 16 16 16 15 16 16 15 15 15 14 14 14 14 15 15 15 15 15
16 18 24 32 30 29 19 14 13 14 18 13 12 13 14 14 16 15 14 13 13 14 14 14 14 15 16 16 15 15 16 16 17 15 15 15 14 15 16 16 15 15 15 15
20 21 27 24 30 23 18 14 14 20 15 13 12 13 13 14 13 14 13 14 14 14 14 14 15 15 16 17 15 16 16 17 17 16 15 15 15 14 14 14 14 14 14 14
24 23 25 26 25 26 16 15 16 14 13 12 13 12 12 12 13 13 13 14 14 14 14 14 15 16 17 17 16 16 17 18 17 16 15 15 15 14 14 14 14 14 14 15
24 21 23 21 21 17 14 13 12 13 13 13 13 12 12 13 13 13 13 14 14 14 14 15 16 18 20 21 19 18 20 20 17 14 14 15 15 14 14 14 14 15 15 15
22 20 21 21 18 17 16 13 13 13 12 12 13 12 12 13 13 13 14 14 14 15 17 19 19 20 21 22 20 21 22 22 15 15 14 14 16 17 16 15 14 14 15 16
21 20 21 21 18 19 16 16 14 13 12 13 13 13 12 13 13 13 14 14 15 16 19 19 19 19 20 22 23 26 24 23 16 15 15 15 15 16 18 17 16 15 14 14
20 20 20 19 16 15 16 16 15 15 14 12 12 14 14 13 13 14 14 15 16 17 20 21 18 21 21 24 24 27 28 22 16 16 16 15 16 16 19 20 20 15 14 14